This is the latest recevied weather packets stored in our database for station/object KC5TIL-3. If no packets are shown the sender has not sent any weather packets the latest 10 day(s).
| Time | Temp. | Humidity | Pressure | Rain* | Wind** | Luminosity | Snow |
|---|---|---|---|---|---|---|---|
| 1787974473 | 33.33° C | 12% | 1013.8 hPa | 0 mm | 1.79 m/s, 119° | - | - |
| 1787974175 | 33.33° C | 12% | 1012.8 hPa | 0 mm | 1.79 m/s, 128° | - | - |
| 1787973873 | 33.33° C | 12% | 1012.8 hPa | 0 mm | 1.34 m/s, 128° | - | - |
| 1787973575 | 33.33° C | 11% | 1012.8 hPa | 0 mm | 1.34 m/s, 128° | - | - |
| 1787973277 | 33.33° C | 11% | 1012.8 hPa | 0 mm | 1.79 m/s, 126° | - | - |
| 1787972976 | 33.89° C | 11% | 1012.8 hPa | 0 mm | 1.34 m/s, 128° | - | - |
| 1787972677 | 33.89° C | 11% | 1012.8 hPa | 0 mm | 2.68 m/s, 119° | - | - |
| 1787972369 | 33.89° C | 11% | 1012.8 hPa | 0 mm | 3.13 m/s, 118° | - | - |
| 1787972068 | 33.89° C | 11% | 1012.8 hPa | 0 mm | 3.13 m/s, 115° | - | - |
| 1787971770 | 33.89° C | 11% | 1012.8 hPa | 0 mm | 2.68 m/s, 112° | - | - |
| 1787971472 | 33.89° C | 11% | 1012.8 hPa | 0 mm | 2.68 m/s, 112° | - | - |
| 1787971170 | 33.89° C | 11% | 1012.8 hPa | 0 mm | 2.24 m/s, 116° | - | - |
| 1787970872 | 34.44° C | 11% | 1012.8 hPa | 0 mm | 1.79 m/s, 115° | - | - |
| 1787970574 | 34.44° C | 11% | 1012.8 hPa | 0 mm | 2.24 m/s, 116° | - | - |
| 1787970258 | 34.44° C | 11% | 1012.8 hPa | 0 mm | 2.24 m/s, 123° | - | - |
| 1787969960 | 34.44° C | 11% | 1012.8 hPa | 0 mm | 2.68 m/s, 119° | - | - |
| 1787969662 | 34.44° C | 11% | 1012.8 hPa | 0 mm | 2.68 m/s, 131° | - | - |
| 1787969057 | 34.44° C | 11% | 1012.8 hPa | 0 mm | 2.68 m/s, 109° | - | - |
| 1787968759 | 35° C | 11% | 1012.8 hPa | 0 mm | 2.68 m/s, 112° | - | - |
| 1787968451 | 35° C | 11% | 1012.8 hPa | 0 mm | 2.24 m/s, 113° | - | - |
| 1787968153 | 35° C | 11% | 1012.8 hPa | 0 mm | 2.68 m/s, 112° | - | - |
| 1787967855 | 35° C | 11% | 1011.8 hPa | 0 mm | 1.79 m/s, 112° | - | - |
| 1787967554 | 35° C | 11% | 1011.8 hPa | 0 mm | 1.79 m/s, 115° | - | - |
| 1787967255 | 35° C | 11% | 1011.8 hPa | 0 mm | 1.79 m/s, 110° | - | - |
| 1787966957 | 35.56° C | 11% | 1011.8 hPa | 0 mm | 2.24 m/s, 117° | - | - |
* Rain latest hour (hover to see other rain measurements)
** Current wind speed in m/s (hover to see current wind gust speed)